{"data":{"norad_id":61713,"epoch":"2026-05-25T04:26:22.337664Z","epoch_age_seconds":56208,"freshness":"FRESH","line1":"1 61713U 24196G   26145.18498076 -.00000217  00000+0  48085-5 0  9991","line2":"2 61713  53.1598 106.3639 0001155  84.1411 275.9722 15.30194060 88863","mean_motion":15.3019406,"eccentricity":0.0001155,"inclination_deg":53.1598,"raan_deg":106.3639,"arg_perigee_deg":84.1411,"mean_anomaly_deg":275.9722,"bstar":4.8085e-6,"rev_number":8886,"period_min":94.105711010275,"perigee_km":474.4412410335,"apogee_km":476.02436945851,"semimajor_km":6853.369805246,"source":"CELESTRAK","updated_at":"2026-05-25T13:38:19.444922Z"}}